NOAA 17 DEB, 48729

Orbit data source: Space-Track

NOAA 17 DEB, 48729 is space debris in SSO originally from a launch on Mon, 24 Jun 2002 UTC launched from the Air Force Western Test Range (AFWTR). Debris objects in space refer to the collection of defunct objects orbiting the Earth. Examples of debris include non-operational satellites, rocket bodies, and fragments generated from explosions, collisions, or faulty payload assembly.

Loading next visibility...
Identifier
48729, 2002-032BN
Orbit
SSO
Country
Flag of USUS
Related business
Manufacturer
Unknown
Mission
Spacecraft
Bus & Motor
Unknown
Mass
Unknown
Launch date (UTC)
2002-06-24 (24 years ago)
Launch vehicle
Unknown
Launch site
Air Force Western Test Range (AFWTR)
Object type
Payload
Rocket body
Debris
Shape & HBR
Unknown shape, 0.1 m
Radar Cross Section
Medium (>0.1 m² and <1 m²)

Expand to show TLE details & history
Last TLE update: 3 days ago

TLE from 3 days ago
0 NOAA 17 DEB
1 48729U 02032BN  26170.59374436  .00008770  00000-0  14989-2 0  9999
2 48729  98.4800 123.9131 0007360 252.5347 107.5053 14.69117679274561
Epoch: 2026-06-19T14:14Z
TLE epoch observation values (Epoch: 2026-06-19T14:14:59.512Z)
Latitude
-0.00003°
Longitude
2.34465°
Altitude
668.438 km
Speed
7.522 km/s
True Right ascension
08h 15m 39s
True Declination
0° 00' 00"
Sunlit
Object was in daylight at epoch
Visualization orbit readout
Latitude
Unknown
Longitude
Unknown
Altitude
Unknown
Speed
Unknown
Apparent Right ascension
Unknown
Apparent Declination
Unknown
Sunlit
N/A
Visualization observer readout
Local Sidereal Time
21:36:27
Azimuth
Unknown
Elevation
Unknown
Doppler factor
Unknown
Orbital elements
Apogee altitude
666.149 km
Perigee altitude
655.788 km
Semi-major axis
7,039.105 km
Eccentricity
0.00074
Inclination
98.48°
RAAN
123.9131°
Arg. of periapsis
252.5347°
True anomaly
107.58571°
Mean anomaly
107.5053°
Eccentric anomaly
107.54551°
Mean motion
3.67508 °/min
Orbital period
97.96 mins
BSTAR
0.0014989
Loading maneuver chart data...
Computing Atmospheric mass density...

Documentation

Showing up to 5 results
|